When you browse on this site, cookies collect data to enhance your experience and personalize the content and advertising you see.
Visit our Privacy Policy to learn more. By continuing to use the site, you agree to this use of cookies and data.
  • In Czech Republic
  • List of Countries
  • For 7 days
  • Water Temperature
  • Weather Map
  • Weather Widgets
  • user-avatar
    Login

    Hourly Weather Neuquén

    Today, 18 September, Wednesday

    Time Temperature Precipitation Wind Pressure Humidity
    00:00 +11°C° 0 mm 4 mps 732 mmHg 48%
    01:00 +10°C° 0 mm 3 mps 731 mmHg 51%
    02:00 +10°C° 0 mm 4 mps 731 mmHg 53%
    03:00 +8°C° 0 mm 4 mps 730 mmHg 55%
    04:00 +7°C° 0 mm 5 mps 730 mmHg 57%
    05:00 +8°C° 0 mm 5 mps 729 mmHg 56%
    06:00 +9°C° 0 mm 5 mps 729 mmHg 54%
    07:00 +9°C° 0 mm 6 mps 728 mmHg 52%
    08:00 +11°C° 0 mm 7 mps 728 mmHg 43%
    09:00 +13°C° 0 mm 8 mps 727 mmHg 33%
    10:00 +16°C° 0 mm 8 mps 727 mmHg 23%
    11:00 +18°C° 0 mm 10 mps 726 mmHg 21%
    12:00 +19°C° 0 mm 12 mps 725 mmHg 19%
    13:00 +20°C° 0 mm 15 mps 724 mmHg 17%
    14:00 +19°C° 0 mm 15 mps 723 mmHg 18%
    15:00 +19°C° 0 mm 16 mps 723 mmHg 19%
    16:00 +18°C° 0 mm 17 mps 722 mmHg 20%
    17:00 +15°C° 0 mm 16 mps 723 mmHg 27%
    18:00 +11°C° 0 mm 15 mps 724 mmHg 35%
    19:00 +9°C° 0 mm 14 mps 725 mmHg 43%
    20:00 +8°C° 0 mm 14 mps 726 mmHg 40%
    21:00 +6°C° 0 mm 14 mps 727 mmHg 38%
    22:00 +5°C° 0 mm 14 mps 728 mmHg 36%
    23:00 +4°C° 0 mm 13 mps 729 mmHg 36%

    Tomorrow, 19 September, Thursday

    Time Temperature Precipitation Wind Pressure Humidity
    00:00 +4°C° 0 mm 13 mps 729 mmHg 36%
    01:00 +3°C° 0 mm 12 mps 729 mmHg 36%
    02:00 +3°C° 0 mm 11 mps 730 mmHg 38%
    03:00 +2°C° 0 mm 9 mps 731 mmHg 39%
    04:00 +2°C° 0 mm 8 mps 731 mmHg 41%
    05:00 +3°C° 0 mm 9 mps 732 mmHg 38%
    06:00 +3°C° 0 mm 9 mps 732 mmHg 35%
    07:00 +5°C° 0 mm 9 mps 732 mmHg 33%
    08:00 +6°C° 0 mm 10 mps 733 mmHg 30%
    09:00 +7°C° 0 mm 10 mps 733 mmHg 28%
    10:00 +9°C° 0 mm 10 mps 733 mmHg 25%
    11:00 +11°C° 0 mm 10 mps 733 mmHg 24%
    12:00 +12°C° 0 mm 10 mps 733 mmHg 23%
    13:00 +13°C° 0 mm 11 mps 733 mmHg 22%
    14:00 +13°C° 0 mm 11 mps 732 mmHg 23%
    15:00 +12°C° 0 mm 11 mps 732 mmHg 24%
    16:00 +12°C° 0 mm 11 mps 732 mmHg 24%
    17:00 +11°C° 0 mm 10 mps 733 mmHg 27%
    18:00 +10°C° 0 mm 9 mps 733 mmHg 30%
    19:00 +9°C° 0 mm 8 mps 734 mmHg 33%
    20:00 +9°C° 0 mm 8 mps 734 mmHg 36%
    21:00 +7°C° 0 mm 8 mps 735 mmHg 39%
    22:00 +6°C° 0 mm 8 mps 735 mmHg 41%
    23:00 +6°C° 0 mm 7 mps 735 mmHg 43%

    Day after tomorrow, 20 September, Friday

    Time Temperature Precipitation Wind Pressure Humidity
    00:00 +5°C° 0 mm 7 mps 735 mmHg 45%
    01:00 +5°C° 0 mm 6 mps 735 mmHg 46%
    02:00 +4°C° 0 mm 6 mps 736 mmHg 48%
    03:00 +4°C° 0 mm 6 mps 736 mmHg 49%
    04:00 +5°C° 0 mm 5 mps 736 mmHg 50%
    05:00 +4°C° 0 mm 6 mps 736 mmHg 48%
    06:00 +5°C° 0 mm 7 mps 736 mmHg 45%
    07:00 +6°C° 0 mm 8 mps 736 mmHg 43%
    08:00 +9°C° 0 mm 8 mps 736 mmHg 38%
    09:00 +10°C° 0 mm 9 mps 736 mmHg 33%
    10:00 +12°C° 0 mm 9 mps 736 mmHg 29%
    11:00 +13°C° 0 mm 9 mps 736 mmHg 25%
    12:00 +14°C° 0 mm 10 mps 735 mmHg 21%
    13:00 +17°C° 0 mm 10 mps 734 mmHg 18%
    14:00 +17°C° 0 mm 10 mps 734 mmHg 18%
    15:00 +17°C° 0 mm 10 mps 734 mmHg 17%
    16:00 +17°C° 0 mm 10 mps 734 mmHg 17%
    17:00 +14°C° 0 mm 10 mps 734 mmHg 21%
    18:00 +13°C° 0 mm 10 mps 734 mmHg 24%
    19:00 +11°C° 0 mm 10 mps 735 mmHg 28%
    20:00 +9°C° 0 mm 10 mps 735 mmHg 30%
    21:00 +9°C° 0 mm 10 mps 735 mmHg 32%
    22:00 +8°C° 0 mm 10 mps 735 mmHg 34%
    23:00 +8°C° 0 mm 9 mps 735 mmHg 35%

    21 September, Saturday

    Time Temperature Precipitation Wind Pressure Humidity
    00:00 +7°C° 0 mm 9 mps 735 mmHg 37%
    01:00 +7°C° 0 mm 8 mps 735 mmHg 39%
    02:00 +6°C° 0 mm 8 mps 735 mmHg 40%
    03:00 +6°C° 0 mm 8 mps 736 mmHg 42%
    04:00 +5°C° 0 mm 9 mps 736 mmHg 43%
    05:00 +6°C° 0 mm 9 mps 736 mmHg 42%
    06:00 +7°C° 0 mm 9 mps 737 mmHg 40%
    07:00 +7°C° 0 mm 9 mps 737 mmHg 38%
    08:00 +10°C° 0 mm 9 mps 738 mmHg 35%
    09:00 +12°C° 0 mm 8 mps 738 mmHg 31%
    10:00 +13°C° 0 mm 8 mps 738 mmHg 27%
    11:00 +15°C° 0 mm 8 mps 738 mmHg 26%
    12:00 +15°C° 0 mm 8 mps 738 mmHg 25%
    13:00 +16°C° 0 mm 8 mps 737 mmHg 24%
    14:00 +16°C° 0 mm 7 mps 737 mmHg 24%
    15:00 +16°C° 0 mm 7 mps 737 mmHg 24%
    16:00 +16°C° 0 mm 6 mps 737 mmHg 24%
    17:00 +14°C° 0 mm 5 mps 737 mmHg 27%
    18:00 +13°C° 0 mm 4 mps 738 mmHg 30%
    19:00 +12°C° 0 mm 3 mps 738 mmHg 33%
    20:00 +12°C° 0 mm 2 mps 738 mmHg 36%
    21:00 +10°C° 0 mm 2 mps 739 mmHg 38%
    22:00 +10°C° 0 mm 1 mps 739 mmHg 41%
    23:00 +10°C° 0 mm 1 mps 739 mmHg 42%

    22 September, Sunday

    Time Temperature Precipitation Wind Pressure Humidity
    00:00 +9°C° 0 mm 1 mps 739 mmHg 44%
    01:00 +8°C° 0 mm 0 mps 739 mmHg 46%
    02:00 +8°C° 0 mm 1 mps 739 mmHg 46%
    03:00 +8°C° 0 mm 1 mps 739 mmHg 47%
    04:00 +8°C° 0 mm 1 mps 739 mmHg 47%
    05:00 +8°C° 0 mm 2 mps 739 mmHg 43%
    06:00 +10°C° 0 mm 3 mps 739 mmHg 38%
    07:00 +12°C° 0 mm 4 mps 740 mmHg 34%
    08:00 +14°C° 0 mm 5 mps 739 mmHg 30%
    09:00 +16°C° 0 mm 6 mps 739 mmHg 25%
    10:00 +18°C° 0 mm 8 mps 739 mmHg 21%
    11:00 +18°C° 0 mm 8 mps 738 mmHg 20%
    12:00 +19°C° 0 mm 9 mps 737 mmHg 19%
    13:00 +21°C° 0 mm 9 mps 737 mmHg 18%
    14:00 +21°C° 0 mm 9 mps 736 mmHg 18%
    15:00 +22°C° 0 mm 9 mps 735 mmHg 18%
    16:00 +22°C° 0 mm 9 mps 735 mmHg 18%
    17:00 +20°C° 0 mm 7 mps 735 mmHg 20%
    18:00 +19°C° 0 mm 6 mps 735 mmHg 23%
    19:00 +17°C° 0 mm 5 mps 735 mmHg 25%
    20:00 +17°C° 0 mm 4 mps 734 mmHg 28%
    21:00 +15°C° 0 mm 4 mps 734 mmHg 30%
    22:00 +16°C° 0 mm 3 mps 734 mmHg 33%
    23:00 +14°C° 0 mm 3 mps 735 mmHg 34%

    23 September, Monday

    Time Temperature Precipitation Wind Pressure Humidity
    00:00 +14°C° 0 mm 3 mps 735 mmHg 35%
    01:00 +13°C° 0 mm 3 mps 735 mmHg 36%
    02:00 +13°C° 0 mm 4 mps 735 mmHg 37%
    03:00 +12°C° 0 mm 5 mps 735 mmHg 38%
    04:00 +11°C° 0 mm 6 mps 735 mmHg 39%
    05:00 +11°C° 0 mm 6 mps 736 mmHg 37%
    06:00 +13°C° 0 mm 6 mps 737 mmHg 35%
    07:00 +14°C° 0 mm 6 mps 737 mmHg 33%
    08:00 +16°C° 0 mm 6 mps 738 mmHg 27%
    09:00 +19°C° 0 mm 5 mps 739 mmHg 21%
    10:00 +21°C° 0 mm 5 mps 739 mmHg 16%
    11:00 +21°C° 0 mm 4 mps 739 mmHg 16%
    12:00 +22°C° 0 mm 3 mps 739 mmHg 16%
    13:00 +22°C° 0 mm 3 mps 739 mmHg 16%
    14:00 +22°C° 0 mm 3 mps 739 mmHg 16%
    15:00 +23°C° 0 mm 2 mps 738 mmHg 16%
    16:00 +23°C° 0 mm 2 mps 738 mmHg 16%
    17:00 +21°C° 0 mm 2 mps 738 mmHg 18%
    18:00 +20°C° 0 mm 3 mps 739 mmHg 20%
    19:00 +18°C° 0 mm 3 mps 739 mmHg 23%
    20:00 +17°C° 0 mm 3 mps 739 mmHg 23%
    21:00 +17°C° 0 mm 3 mps 739 mmHg 24%
    22:00 +16°C° 0 mm 3 mps 739 mmHg 25%
    23:00 +16°C° 0 mm 3 mps 739 mmHg 26%
    Show more